Wind_Speed
55 50 49 47 47 44 46 40 39 40 43 44 44 39 36 36 39 39 43 45 46 44 43 39 36 38 41 44 46 47 47 44 42 45 46 44 45 47 52 53 43 45 45 49 52
55 52 46 45 46 43 40 37 41 43 42 43 41 37 36 32 31 32 36 41 41 42 38 37 36 43 40 38 40 41 34 41 41 42 42 42 45 47 50 53 52 48 50 55 56
51 50 45 46 48 43 45 42 38 39 40 38 40 31 33 28 30 31 35 35 37 37 38 39 40 41 33 35 37 33 33 39 39 37 44 44 44 48 48 49 50 52 49 46 47
52 50 51 52 47 48 46 43 39 39 36 38 33 33 31 31 32 27 36 36 36 38 39 41 44 43 39 36 39 34 35 37 36 34 33 42 42 39 43 37 38 45 46 51 47
56 57 52 50 50 51 48 46 45 46 43 38 40 39 38 36 39 26 29 37 36 32 33 37 40 42 37 39 37 38 35 34 35 36 32 35 32 35 31 32 32 34 39 49 46
59 57 60 55 52 53 55 53 50 45 46 48 46 45 43 46 40 41 37 34 37 43 37 39 40 45 44 31 33 39 37 36 39 41 33 31 34 36 38 27 33 32 41 39 42
63 60 61 55 56 53 58 57 51 51 51 44 48 49 45 51 43 42 40 40 39 37 39 39 37 41 48 47 46 39 40 37 44 43 40 44 36 47 44 37 35 32 39 33 39
67 68 68 64 65 61 60 62 58 53 53 52 53 48 49 51 47 49 48 48 47 43 40 44 44 43 42 43 41 38 42 40 45 41 49 46 39 50 49 47 41 29 38 36 33
71 71 70 69 67 62 63 65 65 61 54 49 45 40 47 47 50 49 48 53 53 48 49 46 42 42 44 49 48 60 45 49 49 49 43 40 40 51 57 46 47 41 39 46 44
68 72 74 74 71 67 67 69 68 61 60 59 63 46 50 48 46 46 47 45 45 41 46 52 46 46 54 57 53 55 54 52 54 55 55 47 41 48 57 59 51 49 48 50 54
80 71 70 74 74 72 72 73 70 67 67 63 64 66 64 61 53 54 57 54 57 54 52 56 53 57 63 65 62 61 61 63 59 63 59 57 50 45 55 62 56 55 51 55 56
79 85 76 73 74 74 74 80 67 73 63 68 72 66 70 68 55 62 66 66 63 60 64 61 59 67 69 70 69 69 68 65 71 72 68 65 54 55 54 67 66 59 60 60 59
80 80 82 83 79 81 79 73 79 83 73 68 74 67 70 72 72 69 76 76 75 70 73 70 68 76 80 80 77 77 76 76 75 84 81 77 65 63 62 66 73 70 64 61 62
88 87 90 87 85 90 91 85 87 80 76 69 75 74 81 81 76 79 80 82 81 74 82 80 83 84 84 79 83 78 87 83 79 85 84 90 79 76 74 71 74 78 76 73 73
90 98 92 98 93 89 94 98 97 91 84 78 82 82 87 92 86 88 90 90 88 90 97 83 89 90 84 88 87 81 88 89 93 85 89 79 86 70 76 78 80 82 84 83 82
104 105 101 101 103 99 98 97 100 95 86 92 93 93 94 97 96 93 96 98 95 99 103 88 99 96 95 91 94 94 90 91 98 93 92 83 96 81 82 85 88 89 90 88 81
114 111 113 105 111 111 111 115 113 103 97 102 112 110 107 105 107 106 104 102 105 109 105 105 98 102 106 100 98 102 96 99 101 102 99 94 103 90 93 95 99 97 93 91 88
122 121 120 124 121 120 120 127 121 107 108 114 122 126 120 111 114 118 120 118 112 113 112 112 102 103 109 108 103 109 111 108 110 109 103 98 101 96 100 94 95 99 98 100 101
131 131 127 135 135 132 136 136 122 124 119 124 134 141 134 128 125 121 119 117 120 121 121 115 113 113 114 117 112 109 117 113 121 114 113 104 103 109 113 108 110 113 111 108 110
146 141 137 147 143 145 145 140 134 132 136 141 135 133 136 130 129 128 129 126 128 124 127 129 124 117 125 121 120 123 120 123 122 119 118 110 109 116 114 115 115 113 113 112 112
156 153 140 146 147 149 150 147 142 139 140 139 137 141 140 135 137 139 138 132 130 130 127 132 129 124 125 125 125 123 125 122 124 121 121 118 113 116 113 117 119 120 119 118 116
151 148 142 152 151 150 149 147 148 143 142 140 142 144 143 140 140 142 138 138 137 133 128 128 130 128 123 123 121 122 120 121 119 121 122 118 116 121 117 118 118 119 118 113 108
149 147 146 147 146 143 145 147 145 141 139 137 136 136 136 134 136 133 133 134 129 128 125 122 121 120 117 116 115 118 115 119 117 118 120 120 117 120 121 119 119 115 112 108 107
125 124 123 126 126 126 126 126 126 120 120 117 119 123 121 120 119 118 115 115 111 111 110 111 112 108 103 106 107 110 112 114 114 115 117 119 119 120 118 116 113 109 107 102 104
107 106 104 109 108 109 114 114 106 102 102 103 104 105 108 107 108 107 101 107 101 99 100 98 97 101 96 89 96 98 104 108 107 106 111 110 113 107 111 107 106 107 100 101 101
94 94 95 93 95 97 96 97 92 88 96 95 96 96 97 99 97 94 93 95 91 91 91 95 91 95 88 89 91 97 100 97 102 107 108 110 105 107 107 107 102 101 98 99 97
82 84 85 81 82 83 79 83 83 85 86 85 87 89 87 87 83 84 86 86 85 85 85 87 85 84 78 82 85 83 78 90 94 99 102 102 95 98 100 99 98 99 95 96 92
Wind_Direction
283 282 278 283 275 283 282 285 286 278 278 274 281 286 281 278 273 273 271 271 269 267 269 262 257 261 257 259 262 264 266 263 264 272 273 273 273 273 278 282 279 270 272 273 282
280 278 277 284 278 275 279 278 287 282 278 273 279 280 280 280 277 275 273 270 272 269 261 253 251 260 255 257 258 261 260 268 266 270 270 269 272 273 277 282 285 277 270 274 277
279 277 277 283 282 278 278 277 282 282 273 278 273 272 274 272 268 260 266 264 262 261 255 247 252 254 258 262 262 257 257 266 267 270 274 274 276 278 281 287 286 290 286 283 277
281 283 281 280 281 278 280 279 277 279 282 270 269 270 265 266 257 265 258 257 254 252 250 251 246 248 252 264 262 260 261 261 266 268 280 283 283 282 288 298 288 287 293 285 280
278 281 281 280 279 276 277 274 276 275 275 271 267 265 266 259 258 252 265 252 253 256 251 252 247 243 258 264 264 258 258 263 268 274 275 289 297 290 291 301 307 298 291 289 283
277 282 280 278 280 280 279 276 275 272 272 272 269 267 270 269 254 258 260 273 261 257 262 251 250 250 250 265 270 264 267 268 279 280 274 277 290 291 286 302 321 304 296 287 282
273 280 280 278 278 279 278 276 275 273 275 275 270 262 267 271 262 258 258 266 263 259 263 258 260 260 258 260 265 264 263 271 278 275 270 280 285 281 285 302 311 317 296 292 292
275 278 281 276 276 277 275 276 274 269 271 277 271 258 265 268 268 260 256 263 261 261 264 268 271 271 263 266 263 277 271 274 275 276 272 272 275 275 280 287 301 298 304 280 286
274 274 273 276 273 274 272 274 272 269 267 265 267 263 264 269 272 265 266 264 259 260 264 262 276 278 278 273 276 272 278 278 276 282 278 277 276 278 279 282 292 288 286 298 289
272 273 272 272 269 272 272 270 267 270 267 264 264 262 263 264 266 268 269 268 256 272 265 264 282 287 274 267 271 276 271 273 274 278 275 274 271 268 275 275 286 283 286 287 302
267 272 270 270 266 266 264 272 265 265 264 264 263 261 263 264 265 276 268 269 268 274 276 274 286 281 270 276 276 271 272 270 273 270 274 274 278 272 277 273 277 285 286 286 278
269 265 267 267 265 264 264 260 263 259 264 263 263 260 261 265 272 263 266 270 267 271 272 275 284 272 276 276 278 278 274 272 272 273 273 277 278 284 280 281 277 281 284 284 286
265 264 266 266 266 262 262 268 263 260 262 261 260 266 267 265 262 269 268 264 264 264 264 271 278 282 282 276 281 280 277 273 271 271 274 277 281 278 280 279 282 277 274 276 281
265 265 264 264 266 265 264 265 262 263 264 262 265 270 267 269 268 271 274 273 268 265 267 276 277 274 279 276 274 279 274 272 271 271 271 275 279 280 278 277 278 278 276 274 275
268 267 270 264 263 268 266 265 266 267 266 267 264 271 269 263 267 273 274 275 271 269 272 280 272 270 278 274 274 274 275 278 276 273 275 274 275 274 276 276 274 273 276 280 282
270 270 269 268 268 270 264 264 268 266 266 268 268 268 264 266 267 267 270 271 271 273 272 275 270 272 275 272 270 270 275 270 274 273 273 278 275 273 272 273 273 274 274 278 282
268 270 268 267 268 270 267 266 266 271 269 269 268 265 266 269 268 269 272 270 269 269 271 268 273 269 271 270 271 272 275 272 272 275 280 274 273 275 274 271 272 270 271 275 277
269 266 265 266 269 266 269 268 267 269 270 268 271 269 267 266 268 270 272 272 272 270 266 266 266 264 266 267 267 268 271 273 272 272 273 274 274 271 268 266 266 269 272 274 276
267 266 266 268 268 268 266 269 270 272 271 270 270 272 270 269 274 272 271 268 269 267 266 266 262 266 264 265 266 267 267 268 270 271 270 269 269 267 269 270 270 271 272 275 279
267 267 267 268 267 266 264 267 270 268 269 271 269 270 271 273 272 272 271 271 268 267 268 270 267 266 266 265 264 263 266 267 267 268 268 266 267 267 267 272 272 274 276 277 279
267 268 264 265 268 268 267 269 268 269 269 268 269 268 270 272 271 272 271 270 270 269 269 269 267 266 267 267 265 267 267 267 266 268 267 266 266 268 269 269 270 273 276 277 280
266 266 265 267 267 267 269 270 270 269 269 268 268 269 270 270 269 270 271 271 272 270 269 267 266 267 267 267 267 268 267 265 264 266 267 267 268 269 266 268 269 272 276 275 272
267 268 267 266 266 268 269 270 270 270 269 269 269 269 268 268 268 269 270 269 268 268 268 267 264 265 265 266 267 265 264 266 265 266 267 267 268 270 272 272 274 274 273 272 270
264 265 266 267 267 267 267 268 267 268 268 267 266 266 266 268 267 266 267 267 266 266 266 266 267 266 264 261 261 264 264 264 265 265 265 267 267 267 269 271 272 272 270 269 270
265 264 264 264 264 263 264 265 265 266 266 264 264 265 266 265 264 264 264 266 266 266 267 267 266 265 263 261 262 259 262 263 264 263 265 267 268 270 272 272 270 269 269 269 268
265 265 263 262 262 264 263 266 267 266 264 263 262 261 261 263 265 266 265 264 265 263 261 263 262 263 263 263 257 256 256 259 261 263 262 263 265 268 266 266 267 268 266 266 267
262 262 263 263 263 262 265 263 261 259 262 263 263 262 261 263 263 264 264 262 263 262 262 262 263 262 262 262 259 258 261 259 261 262 263 264 264 262 264 264 265 265 267 269 269
Height
10772 10770 10771 10771 10769 10769 10768 10766 10765 10764 10762 10762 10759 10758 10758 10758 10761 10761 10759 10760 10761 10763 10764 10767 10768 10769 10770 10771 10771 10772 10773 10769 10770 10772 10770 10776 10773 10771 10763 10765 10780 10782 10775 10768 10764
10761 10760 10760 10761 10760 10759 10758 10757 10757 10756 10755 10754 10752 10751 10752 10750 10753 10752 10750 10753 10753 10755 10756 10758 10761 10762 10761 10762 10761 10764 10765 10759 10763 10764 10762 10763 10761 10762 10759 10757 10760 10764 10765 10759 10755
10749 10750 10750 10750 10750 10750 10750 10748 10748 10747 10748 10747 10747 10746 10746 10745 10746 10744 10743 10744 10746 10747 10749 10750 10752 10753 10753 10754 10754 10756 10756 10752 10754 10757 10753 10753 10755 10750 10752 10755 10755 10749 10747 10745 10747
10737 10737 10738 10738 10738 10740 10740 10740 10739 10740 10739 10739 10741 10741 10741 10741 10736 10739 10736 10738 10739 10739 10740 10741 10743 10746 10745 10745 10746 10749 10747 10745 10744 10747 10746 10739 10745 10743 10740 10744 10748 10740 10736 10731 10734
10725 10726 10726 10725 10726 10728 10729 10728 10729 10730 10732 10733 10733 10732 10731 10732 10728 10734 10729 10729 10731 10732 10733 10734 10734 10737 10737 10737 10740 10740 10738 10739 10736 10736 10738 10733 10731 10731 10729 10736 10736 10732 10728 10719 10723
10713 10713 10714 10713 10714 10715 10716 10718 10718 10719 10719 10722 10725 10726 10724 10718 10724 10724 10722 10720 10723 10723 10723 10725 10727 10729 10726 10730 10731 10730 10732 10732 10730 10729 10731 10730 10727 10723 10717 10726 10726 10721 10717 10716 10716
10699 10700 10700 10699 10701 10702 10703 10704 10705 10706 10709 10711 10713 10716 10716 10704 10713 10713 10715 10713 10712 10714 10714 10715 10717 10720 10719 10721 10721 10723 10723 10723 10719 10720 10723 10723 10725 10714 10710 10713 10717 10714 10710 10709 10709
10684 10685 10685 10686 10687 10688 10689 10690 10691 10693 10696 10700 10701 10707 10704 10698 10701 10701 10704 10702 10704 10704 10705 10706 10707 10708 10710 10713 10710 10714 10713 10713 10706 10711 10710 10710 10714 10708 10703 10700 10706 10705 10700 10702 10702
10667 10669 10670 10671 10673 10673 10674 10676 10677 10680 10684 10688 10688 10695 10691 10687 10686 10692 10693 10691 10693 10694 10695 10695 10698 10700 10699 10700 10701 10696 10704 10701 10700 10696 10698 10698 10703 10697 10692 10695 10694 10696 10691 10694 10696
10651 10651 10652 10654 10655 10656 10658 10660 10662 10668 10671 10672 10676 10683 10681 10676 10675 10678 10679 10678 10681 10681 10684 10681 10686 10689 10683 10681 10687 10686 10688 10688 10688 10684 10681 10686 10689 10689 10682 10680 10680 10683 10683 10679 10682
10634 10634 10634 10635 10636 10639 10640 10641 10649 10655 10656 10659 10662 10667 10662 10662 10667 10667 10661 10662 10663 10665 10667 10665 10675 10674 10664 10665 10671 10672 10672 10672 10669 10667 10671 10672 10676 10677 10672 10665 10669 10668 10670 10669 10668
10614 10617 10618 10619 10619 10621 10624 10626 10636 10634 10645 10645 10647 10650 10646 10642 10654 10650 10644 10647 10646 10650 10647 10652 10662 10652 10651 10650 10654 10656 10656 10659 10654 10647 10650 10657 10665 10664 10665 10650 10652 10657 10655 10650 10651
10594 10595 10597 10599 10600 10603 10605 10610 10610 10611 10627 10637 10626 10633 10628 10626 10632 10633 10624 10625 10629 10632 10627 10633 10643 10636 10638 10635 10634 10640 10637 10639 10642 10632 10634 10636 10651 10649 10645 10642 10632 10634 10638 10639 10640
10571 10571 10573 10576 10579 10579 10587 10579 10584 10591 10603 10619 10610 10619 10609 10602 10614 10606 10608 10606 10610 10616 10605 10623 10623 10614 10616 10622 10617 10626 10612 10619 10622 10617 10625 10615 10632 10632 10629 10625 10618 10612 10613 10616 10621
10545 10548 10547 10550 10553 10557 10559 10553 10559 10569 10580 10591 10589 10592 10584 10580 10587 10592 10588 10586 10591 10590 10576 10620 10596 10594 10600 10598 10594 10611 10602 10597 10596 10600 10601 10616 10597 10625 10608 10606 10599 10594 10589 10592 10603
10518 10521 10521 10523 10524 10533 10523 10526 10531 10544 10569 10567 10558 10556 10555 10561 10560 10566 10571 10566 10566 10565 10556 10590 10565 10571 10577 10575 10573 10579 10583 10582 10572 10575 10577 10603 10573 10608 10594 10584 10576 10575 10571 10570 10582
10489 10492 10492 10496 10494 10500 10496 10496 10501 10531 10545 10541 10517 10518 10525 10534 10534 10537 10544 10545 10542 10537 10541 10545 10558 10556 10543 10548 10554 10553 10558 10551 10553 10553 10559 10572 10547 10581 10569 10561 10561 10552 10552 10552 10554
10457 10464 10464 10463 10462 10469 10459 10458 10477 10520 10519 10502 10484 10477 10492 10506 10506 10508 10507 10517 10512 10507 10510 10516 10536 10530 10519 10524 10537 10528 10527 10534 10522 10528 10534 10547 10542 10550 10535 10541 10536 10525 10532 10535 10538
10422 10429 10440 10429 10426 10433 10422 10421 10460 10483 10483 10470 10451 10438 10450 10469 10476 10473 10477 10483 10477 10472 10472 10489 10509 10499 10498 10498 10504 10519 10497 10503 10489 10501 10501 10527 10527 10516 10503 10515 10510 10505 10507 10514 10511
10384 10393 10418 10390 10390 10387 10383 10401 10428 10443 10438 10427 10421 10418 10410 10428 10433 10433 10441 10447 10436 10446 10451 10450 10466 10482 10458 10472 10476 10471 10475 10469 10467 10470 10472 10490 10491 10482 10485 10485 10488 10483 10480 10487 10486
10341 10346 10380 10354 10354 10346 10348 10372 10384 10401 10392 10389 10390 10383 10384 10398 10394 10392 10392 10402 10405 10406 10417 10409 10426 10442 10436 10441 10444 10439 10441 10443 10440 10434 10441 10454 10458 10448 10460 10461 10467 10457 10457 10462 10461
10295 10301 10335 10312 10315 10314 10318 10333 10337 10352 10351 10353 10351 10350 10348 10354 10358 10353 10360 10355 10362 10370 10381 10378 10383 10400 10402 10400 10406 10409 10411 10409 10408 10407 10409 10414 10424 10414 10434 10437 10443 10436 10432 10432 10433
10257 10266 10278 10274 10272 10286 10290 10288 10288 10300 10314 10313 10314 10309 10308 10310 10309 10320 10324 10322 10329 10329 10334 10342 10345 10359 10368 10374 10375 10371 10377 10375 10384 10384 10387 10392 10402 10390 10392 10407 10409 10413 10407 10410 10408
10222 10227 10238 10234 10242 10248 10244 10244 10251 10261 10268 10274 10272 10267 10270 10275 10284 10282 10283 10285 10295 10297 10300 10305 10309 10317 10340 10346 10345 10342 10348 10350 10353 10359 10358 10357 10368 10366 10373 10376 10375 10378 10377 10380 10379
10188 10199 10207 10202 10208 10211 10204 10204 10223 10232 10231 10233 10238 10243 10236 10240 10244 10247 10262 10248 10266 10274 10274 10278 10284 10283 10298 10315 10317 10318 10315 10320 10324 10329 10325 10333 10329 10348 10340 10344 10349 10339 10357 10354 10360
10160 10164 10164 10175 10177 10177 10184 10187 10197 10206 10192 10199 10202 10208 10210 10210 10219 10226 10230 10227 10236 10242 10247 10243 10257 10253 10269 10280 10280 10278 10288 10305 10299 10294 10295 10300 10313 10315 10312 10311 10313 10314 10325 10329 10337
10132 10134 10137 10152 10153 10154 10167 10162 10165 10165 10169 10176 10177 10178 10186 10191 10197 10198 10199 10203 10209 10215 10220 10222 10225 10233 10249 10245 10246 10259 10283 10269 10271 10269 10267 10270 10287 10285 10285 10287 10291 10290 10300 10302 10314